Flag for Austria Weather past 2 weeks in Grieskirchen, Upper Austria, Austria

Now
66 °F

Sunny.


Feels Like: 66 °F
Forecast: 51 / 72 °F
Wind: 7 mph from East

Location: Linz / Hoersching-Flughafen

Current Time: Sep 16, 2014 at 7:36:42 PM

Latest Report: Sep 16, 2014 at 6:50 PM


Visibility: 10 mi

Pressure: 30.01 "Hg

Humidity: 73%

Dew point: 57 °F

Location of GrieskirchenLocation

Historic Weather in Grieskirchen — Graph

°F

Grieskirchen temperature yesterday

Maximum temperature yesterday: 72 °F (at 3:50 PM)
Minimum temperature yesterday: 55 °F (at 1:50 AM)
Average temperature yesterday: 62 °F

Past Weeks' High & Low Weather Summary

 TemperatureHumidityPressure
High79 °F (Sep 7, 4:20 PM)100% (Sep 3, 3:50 AM)30.15 "Hg (Sep 3, 3:50 AM)
Low52 °F (Sep 13, 1:50 AM)42% (Sep 8, 5:20 PM)29.89 "Hg (Sep 12, 4:20 AM)
Average61 °F85%30.02 "Hg
* Reported Sep 1 6:20 PM — Sep 16 6:20 PM, Grieskirchen, Weather by CustomWeather, © 2014

Note: Actual official high and low records may vary slightly from our data, if they occured in-between our weather recording intervals... More about our weather records

Advertising

Grieskirchen weather history for previous 24 hours

 ConditionsComfort  
Time TempWeatherWind HumidityBarometerVisibility
6:20 PM
Sep 16
70 °FPassing clouds.12 mph64%30.01 "HgN/A
5:50 PM70 °FPassing clouds.12 mph64%30.01 "HgN/A
5:20 PM70 °FPassing clouds.14 mph60%30.01 "HgN/A
4:50 PM72 °FPassing clouds.14 mph61%30.01 "HgN/A
4:20 PM72 °FPassing clouds.13 mph61%30.01 "HgN/A
3:50 PM72 °FPassing clouds.14 mph57%30.01 "HgN/A
3:20 PM70 °FPassing clouds.13 mph60%30.01 "HgN/A
2:50 PM72 °FPassing clouds.14 mph57%30.01 "HgN/A
2:20 PM70 °FPassing clouds.13 mph57%30.01 "HgN/A
1:50 PM70 °FPassing clouds.14 mph60%30.04 "HgN/A
1:20 PM70 °FPassing clouds.14 mph60%30.04 "HgN/A
12:50 PM70 °FPassing clouds.12 mph60%30.04 "HgN/A
12:20 PM68 °FPassing clouds.12 mph64%30.04 "HgN/A
11:50 AM66 °FPassing clouds.10 mph68%30.04 "HgN/A
11:20 AM68 °FPassing clouds.10 mph64%30.04 "HgN/A
10:50 AM66 °FPassing clouds.12 mph68%30.04 "HgN/A
10:20 AM64 °FPassing clouds.10 mph78%30.04 "HgN/A
9:50 AM64 °FPassing clouds.9 mph78%30.04 "HgN/A
9:20 AM63 °FPassing clouds.8 mph83%30.04 "HgN/A
8:50 AM61 °FPassing clouds.9 mph88%30.04 "HgN/A
8:20 AM61 °FPassing clouds.7 mph88%30.04 "Hg6 mi
7:50 AM59 °FScattered clouds.6 mph88%30.04 "Hg5 mi
7:20 AM57 °FPassing clouds.5 mph94%30.04 "Hg4 mi
6:50 AM57 °FPassing clouds.8 mph94%30.01 "Hg4 mi
6:20 AM55 °FPassing clouds.6 mph94%30.01 "Hg5 mi
5:50 AM55 °FPassing clouds.2 mph94%30.01 "Hg6 mi
5:20 AM55 °FPassing clouds.3 mph94%30.01 "Hg5 mi
4:50 AM57 °FPassing clouds.8 mph94%30.01 "Hg5 mi
4:20 AM57 °FPassing clouds.8 mph94%30.01 "Hg6 mi
3:50 AM55 °FClear.8 mph94%30.01 "Hg10 mi
2:50 AM57 °FCool.7 mph88%30.01 "HgN/A
2:20 AM57 °FCool.3 mph88%30.01 "HgN/A
1:50 AM57 °FClear.7 mph88%30.01 "Hg10 mi
1:20 AM59 °FClear.8 mph82%30.01 "Hg10 mi
12:50 AM59 °FCool.9 mph88%30.01 "HgN/A
12:20 AM59 °FCool.7 mph88%30.04 "HgN/A
11:50 PM
Sep 15
59 °FCool.7 mph88%30.04 "HgN/A
11:20 PM59 °FCool.7 mph88%30.04 "HgN/A
10:50 PM61 °FClear.10 mph83%30.04 "Hg10 mi
10:20 PM59 °FClear.9 mph94%30.04 "Hg10 mi
9:50 PM61 °FClear.7 mph88%30.04 "Hg10 mi
9:20 PM63 °FPassing clouds.7 mph83%30.04 "HgN/A
8:50 PM64 °FPassing clouds.9 mph78%30.04 "HgN/A
8:20 PM64 °FPassing clouds.8 mph78%30.04 "HgN/A
7:50 PM64 °FScattered clouds.8 mph78%30.04 "HgN/A
7:20 PM66 °FScattered clouds.8 mph73%30.01 "HgN/A
Weather by CustomWeather, © 2014

See weather overviewHow to use our weather pages